Location: Kosice
(0.0000°N, 21.2500°E)
Time: 05:52:57
(UTC+01:00)

NOSS 3-3 (C) - Pass Details

Date: 24 January 2021
Orbit: 810 x 1402 km, 63.4° (Epoch: 01 March)

Event Time Altitude Azimuth Distance (km) Brightness Sun altitude
Rises 19:41:54 0° 205° (SSW) 3,389 7.5 -27.0°
Reaches altitude 10° 19:44:23 10° 205° (SSW) 2,419 6.6 -27.6°
Enters shadow 19:49:36 79° 244° (WSW) 826 3.6 -28.8°
